Location: Complexul Astronomic Baia Mare
(47.6577°N, 23.5639°E)
Time: 06:44:53
(UTC+03:00)

ISS - Pass Details

Date: 30 May 2017
Orbit: 402 x 408 km, 51.6° (Epoch: 29 May)

Event Time Altitude Azimuth Distance (km) Brightness Sun altitude
Rises 00:59:16 0° 292° (WNW) 2,334 0.4 -20.4°
Reaches altitude 10° 01:01:22 10° 296° (WNW) 1,471 -0.6 -20.4°
Maximum altitude 01:04:39 63° 19° (NNE) 457 -3.5 -20.5°
Enters shadow 01:05:08 54° 66° (ENE) 503 -3.4 -20.5°
